Torna al catalogo

STARLINK-37114

AttivoComunicazioniVLEO
NORAD 68561·PAYLOAD·🇺🇸 United States

Lanciato Apr 2, 2026 da Cape Canaveral Space Force Station

Loading…

Prossimi Passaggi (prossime 24 ore)

TLE

AggiornatoSource: CelesTrak SupGP

Epoca: Sep 15, 2026, 03:58 UTC

1 68561C 26070V   26258.16576389  .00009415  00000+0  27803-3 0  2588
2 68561  53.1581 198.4502 0001253  77.5125 195.7213 15.34399700    18

Traccia STARLINK-37114 in tempo reale con AllMySat

Download on the App Store